GFSNW_500_spd_114.txt.gz
Wind_Speed
73 73 68 63 57 57 57 58 59 53 46 46 45 38 38 39 41 43 43 42 40 42 44 44 41 41 43 47 38 32 27 29 34 36 38 36 31 25 24 22 12 16 15 14
77 73 68 64 57 57 57 56 56 51 45 45 39 39 41 41 38 38 40 39 41 44 41 41 38 35 36 29 22 25 28 31 32 27 20 14 13 11 12 15 14 9 12 8
75 74 71 64 58 61 59 54 51 48 44 41 40 39 38 40 41 38 38 39 38 40 38 36 32 30 22 20 24 25 24 19 15 14 16 9 11 12 12 9 12 12 10 6
72 73 72 62 59 59 57 53 50 42 41 39 38 36 36 36 35 31 32 32 35 39 32 27 22 18 18 19 15 15 12 4 5 8 12 14 15 12 15 17 16 10 6 5
68 66 65 58 56 56 53 48 45 42 37 37 38 35 32 29 28 30 30 28 28 27 22 19 14 17 15 14 14 13 8 7 7 10 11 14 11 14 15 18 15 7 5 6
60 57 56 54 55 53 50 44 40 37 36 37 36 35 32 31 34 30 26 23 23 21 16 13 13 12 11 10 9 11 10 11 15 15 12 11 13 14 11 12 10 7 5 4
54 50 50 49 46 42 42 40 39 37 34 32 33 31 31 31 35 29 23 22 22 17 12 11 10 9 10 9 11 13 14 14 14 11 12 13 10 5 10 14 9 7 6 7
50 47 45 46 47 45 42 39 38 35 35 32 29 31 33 34 30 25 22 21 16 12 11 8 8 9 11 13 14 15 14 7 5 14 15 12 8 2 5 9 9 7 7 7
48 47 46 45 41 38 39 33 36 37 29 34 31 30 29 29 25 22 23 17 13 12 9 7 8 10 13 16 19 18 11 9 7 15 14 16 12 8 7 7 12 10 10 8
46 45 44 45 41 37 38 43 39 40 37 35 31 32 27 24 22 25 19 15 13 11 9 9 10 10 15 16 19 19 15 16 13 13 16 17 14 12 8 10 12 12 10 8
49 51 32 39 40 39 44 41 37 37 36 32 30 29 26 25 25 18 17 13 11 9 9 10 13 10 10 14 17 18 14 16 15 15 16 12 13 11 11 12 16 12 12 10
39 42 45 46 44 39 43 36 34 33 31 28 27 24 24 24 20 17 13 11 10 9 8 12 14 13 13 10 14 20 14 14 17 19 19 16 14 14 14 15 13 13 12 8
38 38 37 38 41 38 34 33 31 29 29 27 26 27 25 21 18 14 13 11 9 9 9 14 15 12 14 12 11 17 16 9 16 16 18 17 17 16 19 15 15 13 9 6
34 34 34 32 32 33 32 29 28 28 26 27 27 27 23 19 15 12 10 10 10 10 11 13 18 18 14 13 12 14 17 14 14 21 20 20 17 15 15 16 14 13 9 6
32 32 31 33 33 32 31 32 30 30 29 27 25 23 20 16 12 10 9 9 10 12 13 15 16 21 21 16 13 10 12 16 15 17 25 22 18 16 15 16 14 12 9 6
33 36 35 33 32 33 33 31 31 30 25 25 23 21 17 13 10 9 8 9 10 12 13 14 17 19 21 20 16 12 11 15 19 17 16 18 19 18 18 17 14 11 8 6
34 34 36 36 34 30 26 24 24 26 24 24 22 18 14 12 10 8 6 6 8 9 9 10 13 18 16 20 18 15 10 12 20 22 18 18 21 22 22 17 13 8 5 7
33 37 33 29 28 28 24 25 25 25 22 21 18 15 14 11 9 6 3 5 7 9 10 10 11 14 15 16 19 17 15 12 18 23 22 19 19 22 20 18 13 7 4 7
30 29 26 26 26 25 24 25 25 24 22 19 17 15 13 10 6 4 3 4 8 11 14 13 12 11 11 11 19 19 16 16 17 25 23 21 20 20 19 16 11 7 6 7
26 25 25 23 24 22 22 24 25 23 21 19 17 13 10 6 4 3 2 5 9 13 16 19 15 9 8 10 15 19 18 19 18 20 21 20 17 17 19 14 12 10 8 8
24 23 22 21 21 21 22 23 23 22 20 18 14 12 9 6 4 3 2 3 2 3 9 16 11 8 8 9 12 19 20 18 21 23 22 18 15 14 14 15 14 12 12 11
24 23 24 22 21 21 21 24 22 21 19 16 13 11 8 6 4 3 2 4 6 10 12 10 8 9 9 9 12 17 19 16 23 22 19 17 15 14 15 16 14 16 15 12
23 24 23 21 20 19 20 21 20 19 17 15 13 10 8 5 4 4 4 4 9 10 10 9 8 8 7 7 13 14 18 19 15 18 18 19 21 19 18 17 17 16 14 12
21 20 18 16 18 17 20 21 20 19 16 14 12 9 7 6 4 3 3 3 8 8 8 9 6 5 5 7 10 13 15 18 22 22 23 23 21 20 19 19 18 15 14 12
21 19 17 17 18 18 21 20 19 17 15 13 11 8 7 6 5 5 4 3 6 8 10 9 6 5 3 6 7 9 12 15 17 19 20 20 19 18 19 19 17 15 13 13
19 17 17 18 18 20 20 20 18 16 14 12 10 9 7 6 5 5 5 5 5 11 13 11 8 7 5 3 4 7 9 14 15 16 17 18 19 20 20 19 16 15 15 17
18 19 18 18 20 21 20 18 16 14 12 11 11 9 7 6 5 6 7 7 8 12 16 15 11 11 9 7 4 3 6 10 12 14 18 18 19 16 13 13 13 14 16 18

GFSNW_500_spd_117.txt.gz
Wind_Speed
83 78 74 70 66 61 58 56 55 55 55 57 53 47 46 42 43 40 39 41 41 40 38 41 42 40 40 38 42 42 42 45 44 40 32 33 36 33 36 32 24 18 19 23
86 85 80 77 71 63 60 57 56 51 50 51 49 47 46 41 40 38 41 40 39 41 41 44 38 39 39 39 41 42 38 33 28 28 30 29 26 23 19 16 15 19 23 18
78 78 82 81 76 67 64 61 59 59 56 50 43 41 41 41 39 41 39 39 39 38 39 37 38 40 39 40 35 28 25 24 23 20 23 21 19 16 14 13 12 12 17 19
88 81 74 76 76 72 68 65 61 54 53 44 47 42 40 39 40 39 37 37 37 34 34 37 37 37 36 30 20 21 21 18 14 12 13 17 21 17 15 15 16 17 18 18
92 87 80 74 72 72 69 64 59 55 51 53 45 35 37 38 39 35 34 33 32 35 35 34 31 30 23 20 19 19 17 13 12 9 10 11 12 15 18 17 18 17 19 13
84 88 82 76 72 73 70 63 57 54 52 46 42 37 35 34 36 33 36 30 32 32 30 28 27 19 17 17 14 14 14 13 10 11 12 13 13 15 21 18 19 15 9 7
72 77 82 75 68 69 66 61 57 53 51 43 39 35 34 36 36 33 30 34 34 31 28 26 18 16 15 13 12 12 14 14 14 16 15 14 15 15 13 11 9 9 8 7
59 70 74 67 61 63 62 54 51 46 41 38 34 36 35 35 30 32 35 34 32 29 25 18 16 15 13 13 12 14 16 17 16 11 10 14 12 7 2 2 4 7 8 7
57 65 63 58 58 58 54 50 47 42 39 36 34 34 37 30 30 33 34 31 29 24 19 17 14 11 10 11 16 18 17 17 14 6 10 13 11 10 6 7 7 11 9 6
59 59 58 58 57 53 50 45 42 37 33 34 33 28 35 31 31 30 29 28 25 20 18 15 12 10 12 12 15 21 20 19 16 12 11 15 14 13 10 10 11 10 10 7
56 55 54 53 51 47 45 42 39 36 38 31 31 29 34 38 34 29 28 26 21 20 15 13 10 13 14 14 17 21 22 21 18 20 14 17 17 16 13 11 10 12 10 8
52 51 50 49 48 44 44 42 43 47 42 40 35 34 34 36 34 27 25 23 21 17 16 13 13 15 16 14 17 20 22 21 21 20 18 18 16 14 12 13 11 14 12 10
47 47 51 47 42 45 45 46 39 39 39 38 40 41 39 30 26 26 23 20 16 16 16 16 17 18 19 19 17 17 21 21 21 25 22 23 20 15 13 15 17 14 13 11
53 43 53 47 36 38 40 41 40 39 35 37 36 34 28 28 25 23 19 17 15 15 15 14 16 19 20 18 20 18 19 23 21 21 20 22 21 18 17 19 17 15 14 12
51 48 42 40 34 34 37 32 33 37 36 30 29 29 30 27 24 19 16 15 15 15 15 16 17 20 23 21 19 17 18 19 23 15 21 21 20 20 23 19 16 16 15 12
42 41 41 40 38 40 40 38 37 34 33 32 30 29 28 25 20 18 16 14 15 15 16 17 19 21 23 26 24 20 16 15 22 18 19 23 22 25 21 19 19 18 15 12
35 35 36 37 37 36 34 30 30 30 28 30 30 28 25 22 19 16 14 13 12 13 14 16 18 20 23 24 23 23 19 15 19 22 20 27 28 25 22 20 20 18 14 12
35 36 36 36 35 34 33 32 32 29 30 30 28 26 24 20 16 14 12 10 10 11 13 14 15 16 18 20 19 23 22 19 17 24 24 22 26 24 22 22 21 19 16 12
38 38 37 34 33 34 33 31 32 30 27 26 25 22 19 17 15 12 10 9 9 10 13 14 14 13 12 15 17 22 23 21 18 18 28 26 26 27 23 24 23 20 15 10
33 31 32 34 33 32 32 32 30 29 28 26 23 20 19 15 12 10 8 7 8 11 13 15 18 15 12 11 13 20 23 21 20 18 23 29 27 25 24 24 23 21 15 11
29 28 29 29 29 28 29 29 29 28 26 24 21 20 16 13 10 8 7 7 7 8 10 16 17 17 10 10 11 16 23 23 20 19 22 25 25 24 25 24 22 20 16 13
29 27 26 26 25 25 26 27 27 27 24 23 20 16 14 11 9 7 7 6 7 6 4 7 11 10 11 11 11 14 20 24 17 20 25 24 24 23 22 22 21 20 19 17
26 25 24 24 22 21 23 25 25 23 23 21 18 15 12 10 8 7 6 6 8 9 10 10 10 11 10 10 12 14 17 19 18 21 26 23 22 20 20 19 19 19 20 19
20 20 19 18 18 18 20 23 23 23 21 19 17 14 12 10 8 7 7 6 6 12 12 11 10 8 8 9 12 14 15 16 17 20 25 24 20 17 15 17 17 19 21 19
18 18 18 16 18 18 19 22 22 22 21 19 17 14 12 10 9 8 7 6 5 8 8 11 9 8 7 7 9 11 15 16 19 17 19 20 20 20 21 22 22 22 22 21
19 17 15 17 18 18 21 22 22 21 20 18 16 14 12 11 9 8 7 7 6 8 12 13 11 9 6 5 7 7 7 13 17 19 21 22 23 22 22 22 23 24 23 21
18 17 17 18 19 20 22 21 21 21 19 17 15 13 12 9 9 8 6 7 9 9 13 16 15 11 9 7 3 5 6 9 14 16 19 20 20 20 21 22 23 23 21 20

GFSNW_500_spd_123.txt.gz
Wind_Speed
78 77 77 75 71 70 69 66 66 60 60 61 61 56 50 38 39 45 45 39 40 39 38 33 33 33 38 38 38 37 37 38 40 40 38 39 42 45 41 42 41 37 36 38
79 77 75 75 76 77 69 66 65 61 61 62 58 54 52 52 43 32 34 38 40 37 31 34 32 38 38 39 37 38 37 39 43 41 40 38 40 39 37 33 35 32 28 32
77 78 78 77 75 74 74 72 68 62 62 59 53 49 47 47 49 40 38 37 41 31 34 35 35 37 38 36 37 40 37 41 41 40 38 38 32 29 31 33 28 24 27 27
75 75 75 75 76 74 71 72 73 65 59 54 49 49 44 42 42 39 32 32 36 36 35 36 36 37 36 36 39 38 40 42 41 39 32 30 30 28 26 24 26 31 23 22
76 76 78 76 75 74 72 72 70 65 57 53 48 47 44 42 40 43 40 28 31 33 32 35 35 34 36 36 36 33 40 39 35 27 29 27 26 21 20 19 21 20 21 23
76 78 78 79 77 77 75 69 64 62 61 57 54 46 40 38 39 38 36 35 32 31 33 35 34 34 35 36 34 36 37 32 29 19 28 27 16 16 18 18 21 23 23 21
70 71 72 73 76 78 73 69 62 64 65 61 49 43 41 37 37 38 37 37 32 32 31 32 33 34 35 33 35 34 29 26 24 19 27 21 15 15 14 14 15 18 17 15
59 61 65 66 69 74 68 59 57 51 54 56 53 47 42 42 39 35 34 33 35 28 30 31 32 33 32 34 36 28 22 24 23 19 22 17 11 9 9 8 13 12 7 7
54 53 53 59 64 67 63 58 52 50 44 52 53 48 45 41 40 37 36 34 29 29 31 31 34 32 32 36 28 22 21 23 22 18 21 14 9 3 7 9 12 8 6 7
49 52 51 53 61 63 60 55 51 47 42 44 48 50 45 44 41 38 40 37 28 30 30 32 29 28 33 30 15 18 17 20 18 20 21 14 11 14 12 12 12 11 8 5
44 53 51 52 58 63 61 55 51 42 35 39 40 40 41 41 39 38 37 31 29 28 30 28 31 32 29 18 11 19 19 18 16 22 24 15 11 14 13 12 13 10 8 6
39 51 51 52 59 63 63 58 50 44 40 36 36 34 39 35 33 32 28 27 27 29 32 31 28 27 17 17 18 23 21 20 18 19 16 15 15 13 15 13 14 9 9 7
35 50 51 54 61 64 60 58 51 45 36 36 37 30 34 34 32 33 30 28 27 28 31 34 27 23 22 21 26 28 26 24 22 22 19 20 19 18 17 16 14 11 10 9
42 52 52 57 63 64 63 57 49 43 40 37 35 29 27 25 26 27 28 26 27 26 26 28 26 21 25 25 29 30 25 26 25 21 21 27 26 20 20 19 19 14 13 12
50 51 54 61 66 66 63 51 32 48 40 37 36 30 31 28 25 26 29 29 29 26 25 24 22 25 22 28 31 29 25 28 28 24 24 22 24 23 22 24 22 18 16 16
55 58 62 64 67 67 66 54 46 49 47 38 35 33 26 24 25 28 28 28 26 23 21 21 24 27 27 27 28 26 25 29 27 25 26 24 22 23 21 22 22 22 19 19
60 62 62 62 62 57 53 49 47 47 37 32 34 28 26 26 25 26 27 25 24 20 21 20 22 23 25 23 24 26 29 30 29 29 26 23 21 22 22 20 22 22 21 21
54 53 51 49 50 49 45 42 42 35 32 27 28 27 25 26 25 28 28 26 21 20 18 19 20 20 21 22 25 26 28 28 29 28 29 24 21 21 20 26 23 22 22 21
49 46 44 43 43 43 40 38 34 29 29 29 29 29 35 33 28 28 25 22 19 17 17 17 18 19 17 20 21 21 22 21 23 23 26 25 19 20 20 25 27 24 22 22
44 47 45 43 38 32 28 27 28 27 30 32 34 32 28 25 27 21 19 17 16 16 15 15 16 14 15 19 20 17 15 16 17 18 22 24 21 18 21 25 26 24 22 22
33 34 31 30 31 32 32 33 33 32 30 30 30 33 28 24 21 18 19 17 13 15 13 13 11 12 16 17 16 13 12 15 16 16 19 18 17 15 21 25 26 22 19 20
23 24 27 30 31 34 37 38 34 29 27 30 32 28 27 25 20 19 17 14 15 12 10 11 10 12 10 7 6 9 14 16 15 14 15 15 13 13 17 23 23 21 22 24
31 32 33 37 36 35 32 29 26 28 29 28 24 24 22 21 20 17 15 14 12 10 10 9 10 10 8 8 11 13 14 15 14 13 13 18 11 15 16 16 19 22 24 23
26 24 23 23 23 21 23 22 22 21 20 20 20 19 18 16 16 15 13 11 11 11 10 8 11 10 7 9 12 14 15 16 12 12 13 14 13 14 16 19 21 22 23 23
17 18 17 15 16 19 24 21 20 22 22 22 22 21 19 17 15 14 12 11 11 10 10 10 9 10 9 12 13 14 15 12 12 11 12 14 14 16 15 16 16 18 20 22
15 14 14 15 16 19 22 23 23 24 24 24 23 20 17 16 15 13 12 11 10 10 10 10 10 11 13 13 12 12 11 10 8 10 10 11 14 15 16 18 17 18 19 22
15 15 16 15 15 17 20 22 23 22 22 20 19 17 17 15 13 12 11 11 10 10 11 11 12 13 15 15 13 11 10 9 9 10 10 12 12 13 14 16 18 18 18 19

GFSNW_500_spd_129.txt.gz
Wind_Speed
79 78 75 73 72 71 70 69 67 63 62 63 62 59 56 53 50 50 51 51 51 46 43 43 42 42 42 43 39 37 34 33 36 36 38 37 34 35 38 41 44 46 49 40
81 78 76 75 73 71 70 70 67 65 63 65 62 56 52 49 46 45 48 47 44 43 42 39 37 39 41 40 37 34 32 36 37 39 38 36 37 37 38 42 45 43 50 44
78 79 79 74 75 72 70 69 68 66 66 61 55 52 51 51 46 44 45 44 44 44 41 39 38 37 38 38 34 37 35 36 36 40 39 39 41 40 40 44 47 45 45 34
73 76 78 77 72 72 74 73 70 65 65 59 56 54 50 47 45 43 43 42 44 44 38 36 32 32 32 31 34 37 37 38 39 40 41 43 41 40 41 45 43 45 32 31
66 61 76 76 73 71 71 70 69 67 62 60 56 54 51 46 41 41 43 41 39 44 40 42 37 33 33 34 40 38 40 41 41 42 42 43 42 40 42 43 37 36 31 19
72 67 72 75 72 72 70 67 65 64 62 60 61 57 47 42 40 40 37 39 40 40 37 41 42 40 35 32 31 34 34 40 41 38 42 42 40 37 39 33 28 25 24 21
69 73 73 72 70 69 65 65 63 62 60 59 56 49 46 46 42 39 38 39 37 35 37 39 40 39 38 36 30 30 34 35 35 39 40 40 37 32 27 28 21 24 17 16
67 68 70 68 67 64 62 61 60 58 58 55 50 49 42 42 40 42 41 38 38 38 37 31 33 37 33 31 31 34 32 33 36 40 38 39 30 24 21 19 17 18 16 18
60 65 63 61 60 58 55 51 50 49 48 51 44 42 43 41 40 42 40 38 39 39 38 42 40 37 33 36 34 33 31 31 35 36 37 38 20 20 16 15 15 17 17 18
55 55 57 56 54 53 52 49 49 48 45 40 41 41 42 44 45 40 40 39 40 39 37 35 35 35 34 37 35 33 30 32 33 33 33 23 16 16 18 19 19 18 17 16
52 52 53 54 54 53 51 48 49 47 43 41 42 42 43 44 45 42 42 40 40 36 34 34 32 33 34 34 31 28 28 32 31 29 24 16 14 18 22 20 21 21 19 18
47 48 49 49 48 49 50 49 47 46 46 42 43 38 39 40 42 45 47 41 36 33 32 30 31 31 30 30 31 28 33 32 30 29 22 17 16 17 24 24 22 21 20 20
44 49 49 49 49 50 48 47 47 46 44 43 39 40 37 39 39 40 43 40 38 35 33 32 33 33 34 32 31 35 35 36 30 28 19 20 20 19 20 26 24 21 20 19
34 35 36 39 43 43 44 46 46 48 46 47 41 38 38 38 34 32 35 39 38 36 35 36 35 30 28 32 34 35 34 31 24 23 25 28 26 27 26 25 26 26 23 21
36 33 33 36 40 41 40 44 46 46 46 43 42 41 34 32 33 34 31 33 35 35 35 35 30 28 34 36 36 31 28 23 28 33 32 32 30 30 29 25 25 31 29 25
36 34 31 37 42 44 43 51 52 55 47 35 23 32 35 31 33 35 32 32 34 33 30 29 32 33 35 37 32 25 25 32 33 31 32 32 31 31 32 31 26 26 29 31
39 35 33 43 44 47 55 53 59 55 32 31 29 26 38 32 37 32 31 28 26 23 28 30 35 34 32 26 21 23 24 26 30 32 33 33 33 33 33 31 29 25 27 30
37 38 46 44 46 59 64 56 53 53 33 17 16 23 31 28 33 32 30 24 22 25 28 32 31 26 23 17 20 21 22 24 27 29 32 34 35 35 34 33 30 28 28 28
46 51 47 47 56 61 57 47 41 35 30 17 20 27 29 34 32 29 23 20 20 20 22 22 21 17 16 18 18 19 21 23 25 29 32 33 33 32 30 30 29 29 27 27
57 57 59 64 64 57 51 37 35 34 29 31 28 27 26 24 23 18 14 10 13 14 16 15 13 12 16 19 18 18 21 25 27 29 26 19 20 22 22 23 25 27 24 27
64 64 66 63 57 43 30 29 25 23 34 34 28 28 28 25 20 14 15 14 13 13 12 15 12 12 19 18 16 18 22 21 19 15 16 20 21 21 20 19 19 20 20 24
62 57 55 55 41 35 30 31 33 33 34 35 32 26 23 21 21 18 19 17 14 15 15 17 11 16 18 16 16 17 15 12 12 13 17 19 20 19 18 16 18 19 19 24
56 49 45 39 36 33 33 32 28 26 26 29 25 20 19 22 24 19 19 18 17 15 17 11 12 17 15 15 15 13 12 13 16 19 20 23 20 18 18 15 18 20 19 23
46 39 34 31 30 27 24 23 22 22 25 24 20 21 21 20 16 17 19 16 16 16 11 11 16 13 14 14 14 14 14 16 17 19 19 20 18 16 18 14 16 19 21 23
33 26 21 19 18 18 18 19 18 18 19 18 18 18 16 16 19 19 18 17 15 11 12 13 12 12 13 13 15 16 17 16 16 17 16 16 13 13 14 13 14 16 20 22
16 17 14 10 13 14 14 14 15 15 13 15 19 20 21 21 20 18 15 14 13 12 11 12 11 11 11 12 14 15 19 21 19 15 13 12 10 12 14 12 13 14 15 18
13 12 10 11 11 12 12 15 17 19 21 22 21 19 18 15 14 12 12 13 12 11 11 11 11 11 11 12 13 15 17 18 17 15 11 10 10 10 13 13 14 15 15 16

GFSNW_500_spd_132.txt.gz
Wind_Speed
83 83 79 75 73 70 70 69 66 61 61 62 61 57 50 50 47 48 45 48 48 45 42 42 42 40 38 42 38 37 36 38 38 36 36 39 37 37 39 41 42 44 50 47
75 77 79 77 74 72 70 71 69 66 64 65 60 57 49 49 48 50 48 45 41 40 41 41 40 41 41 38 38 37 35 39 39 37 36 37 40 40 39 41 43 42 47 47
68 69 70 75 72 72 70 71 71 70 70 66 60 56 54 53 50 47 46 46 44 41 38 39 41 38 37 37 36 37 36 37 37 36 36 39 39 39 41 43 45 43 47 45
65 67 66 60 72 69 72 73 73 69 71 67 61 61 56 51 50 46 45 45 45 44 40 41 39 37 37 37 37 35 38 37 35 39 39 42 40 41 42 44 42 47 43 50
68 64 61 54 56 68 70 72 72 67 64 61 59 59 55 51 50 47 45 45 41 41 39 39 39 38 36 36 35 34 34 35 39 40 42 43 41 40 42 42 42 45 48 39
68 65 62 60 54 62 69 66 66 66 62 60 61 55 48 45 46 46 44 43 42 39 38 39 40 41 39 40 36 35 36 37 40 47 47 41 38 39 40 40 42 47 41 28
61 60 64 60 57 59 55 57 61 62 61 60 56 49 48 48 45 42 41 40 38 37 37 38 39 42 42 42 40 41 37 42 37 34 32 36 38 39 36 38 41 37 29 20
56 56 60 64 53 57 58 53 54 55 55 54 54 52 50 49 48 46 42 39 37 39 38 39 41 41 39 39 39 39 38 31 32 33 36 39 36 33 38 42 30 31 21 17
60 59 56 59 49 53 54 55 50 51 53 51 47 49 49 47 46 44 42 42 43 42 41 41 40 39 34 38 35 33 32 31 33 34 38 41 34 34 37 37 23 23 18 17
60 63 67 62 56 49 53 57 51 44 47 50 50 48 45 43 42 39 40 43 45 42 42 41 41 38 38 38 30 32 32 33 34 35 38 39 31 34 33 27 19 21 19 19
56 61 71 71 63 57 56 57 51 42 41 43 48 48 44 42 41 41 41 45 43 44 41 41 41 41 36 35 33 33 32 33 33 33 33 35 31 29 25 23 23 22 19 20
59 61 69 66 72 68 61 52 46 40 39 39 38 40 40 40 42 45 45 43 41 40 41 38 37 35 32 31 32 34 33 30 33 33 35 39 34 28 21 21 20 23 23 21
55 55 62 64 63 57 46 44 42 40 38 40 40 38 42 43 44 45 45 44 44 42 39 37 37 34 30 31 31 32 28 31 35 37 36 36 29 23 23 20 21 22 22 23
53 50 49 47 46 46 45 40 41 42 41 40 39 37 38 34 34 35 40 39 42 43 41 36 33 32 31 29 29 30 30 30 35 36 31 28 24 25 25 25 25 25 24 24
49 50 48 44 43 42 42 41 41 42 41 41 44 33 38 32 26 29 30 26 36 39 37 36 32 30 29 31 33 30 27 35 38 34 28 28 28 29 31 30 30 28 26 25
43 43 43 43 41 39 39 39 40 40 39 41 46 40 38 35 29 26 27 27 24 32 36 34 32 31 31 33 31 27 33 39 36 27 28 28 29 29 33 34 32 30 27 28
40 40 40 40 42 40 40 39 39 39 41 40 38 35 37 32 33 32 29 27 26 26 29 32 31 31 34 33 29 35 40 32 25 22 26 32 36 35 36 35 34 33 31 29
41 41 42 42 41 36 37 37 38 45 45 43 36 30 28 34 33 33 32 32 29 27 27 26 26 28 29 29 33 37 27 20 21 23 26 28 30 33 34 35 35 34 33 32
41 42 43 41 37 38 32 31 42 47 43 36 34 28 27 26 26 30 32 30 26 23 24 24 25 25 26 27 26 19 19 19 20 22 24 27 29 29 28 29 29 29 31 33
49 48 44 40 36 37 32 39 48 52 47 27 32 28 22 23 33 31 29 26 26 22 21 23 25 20 21 18 17 16 16 17 20 22 24 25 25 24 26 27 29 29 27 30
53 45 38 38 41 42 25 37 46 43 26 17 22 19 15 24 25 24 26 22 20 20 19 22 19 14 17 19 14 14 16 17 20 22 20 18 19 22 25 28 28 27 23 23
42 39 39 51 49 30 25 41 30 30 21 19 23 22 25 29 23 20 22 20 17 19 20 21 15 15 20 14 12 16 16 19 20 18 17 20 23 26 29 29 27 22 19 20
53 52 51 49 46 40 40 38 36 25 20 20 22 19 22 22 16 20 17 17 19 21 21 14 12 17 13 14 15 15 18 19 18 18 20 22 26 27 29 25 21 19 18 15
50 40 38 34 34 33 31 27 22 20 20 21 19 21 22 19 17 19 22 21 22 20 12 11 15 11 13 13 14 16 18 18 19 20 20 22 25 27 24 20 16 17 14 15
36 30 29 29 25 22 20 17 17 17 19 21 23 25 24 20 22 23 23 21 17 11 11 12 12 11 12 13 15 16 16 18 20 23 25 26 23 22 17 14 13 13 13 13
29 21 13 13 12 13 14 14 13 15 16 21 22 23 23 23 23 21 17 12 10 12 11 11 11 11 12 14 15 15 16 17 19 21 23 22 20 18 17 13 13 13 13 14
12 11 9 9 10 14 15 15 15 16 16 18 20 19 21 17 15 12 10 11 14 13 12 12 11 11 13 14 15 15 15 16 18 21 22 20 18 17 15 13 15 15 14 13

GFSNW_500_spd_135.txt.gz
Wind_Speed
80 79 77 77 74 70 69 68 66 63 62 66 64 58 55 55 53 55 55 55 54 52 51 51 49 45 41 39 36 34 34 35 34 34 36 38 34 35 38 39 39 42 45 46
61 66 75 70 79 75 70 69 67 64 64 64 63 57 53 48 48 48 45 46 47 44 42 41 42 42 38 34 33 33 29 33 32 36 38 37 35 37 39 40 41 40 45 44
66 61 64 67 64 76 71 68 68 67 67 63 58 56 49 48 46 45 46 45 43 40 38 37 37 36 35 35 35 30 32 34 35 36 38 38 37 38 39 40 42 42 41 42
66 59 56 57 55 59 72 66 69 70 70 66 61 57 55 53 53 50 49 48 46 40 37 38 37 35 32 33 35 35 36 37 38 41 40 40 37 36 37 41 41 47 36 45
62 57 55 59 56 54 56 62 63 68 65 61 60 60 56 50 45 44 43 48 39 36 37 38 36 36 36 39 37 37 38 39 38 36 36 37 34 34 39 43 44 43 44 44
64 67 59 53 58 49 56 48 53 60 62 61 61 59 50 49 48 46 43 41 40 40 41 42 41 39 39 36 37 39 38 37 36 37 37 38 37 34 37 37 38 42 43 41
60 58 51 51 56 59 51 49 45 46 54 58 56 52 51 50 45 42 43 43 43 44 45 43 42 39 38 39 38 39 38 38 40 41 40 39 38 34 33 36 37 39 40 37
58 55 53 53 56 58 57 54 48 42 40 50 50 51 49 50 50 48 46 47 46 45 44 43 42 40 40 39 40 38 36 39 41 38 36 33 27 31 33 34 34 37 37 36
63 57 59 58 54 59 49 51 47 40 35 41 48 51 52 51 49 49 49 47 47 47 46 44 42 40 39 39 37 36 36 34 34 29 33 36 33 33 34 34 34 30 33 29
54 56 55 57 54 64 59 45 47 47 39 33 46 49 48 51 51 51 50 48 46 44 44 43 42 40 39 38 35 35 33 27 27 31 35 35 30 31 32 33 35 26 25 25
71 62 59 52 54 62 62 47 45 45 42 33 36 46 48 49 50 51 50 49 47 48 46 44 40 38 38 36 34 33 33 34 30 30 34 34 31 31 31 35 35 26 22 22
54 59 64 61 58 58 47 50 51 46 42 35 31 40 44 44 45 46 48 46 46 45 45 43 42 39 36 33 33 32 32 31 33 33 31 31 32 32 35 37 31 25 20 18
45 49 51 53 60 65 45 47 54 42 41 34 32 33 40 41 41 42 42 40 42 42 41 41 40 38 36 35 31 30 30 32 30 33 28 29 33 34 36 33 28 24 22 22
41 47 50 61 54 44 46 51 49 42 40 31 33 35 35 38 27 42 41 42 40 40 41 39 37 35 35 32 30 27 26 29 31 31 27 33 35 37 33 28 25 25 25 26
43 38 49 61 48 48 48 46 44 42 37 32 39 37 40 41 34 34 40 41 41 41 40 40 37 34 28 27 29 26 27 28 32 30 29 34 37 35 28 25 27 28 30 30
49 41 49 57 44 51 51 52 48 42 41 37 46 45 42 38 34 34 22 28 31 34 36 36 36 33 32 31 29 26 27 30 33 31 31 38 35 29 28 32 32 30 33 33
49 48 50 46 43 44 46 46 45 41 42 41 39 41 33 36 32 33 25 23 22 23 26 32 31 30 32 32 29 26 31 31 29 31 36 31 25 23 26 31 34 36 36 35
48 47 44 42 44 47 46 43 43 42 39 38 41 37 33 39 31 23 27 26 27 22 23 27 30 32 32 29 23 31 29 26 29 34 25 21 21 22 24 27 31 33 33 33
51 47 44 45 44 42 39 37 39 39 39 41 46 40 35 40 34 25 28 28 28 32 27 24 25 26 25 20 26 26 26 29 25 20 19 19 21 23 23 23 23 25 27 28
42 41 39 37 34 34 24 28 33 38 39 40 36 37 24 33 30 19 28 32 35 31 27 25 25 20 19 24 27 27 26 20 19 17 18 19 18 19 21 23 25 28 31 34
47 45 43 41 33 23 17 16 30 34 35 35 36 34 27 35 27 22 28 26 27 27 24 23 22 18 21 27 28 22 18 18 16 15 15 17 20 21 22 24 28 31 34 34
43 42 44 39 38 26 14 16 31 37 36 35 29 27 36 37 27 25 24 25 21 21 22 24 20 18 25 29 21 15 15 14 13 14 17 19 20 21 23 27 30 34 32 28
41 47 44 31 18 8 15 41 35 28 31 32 27 27 28 23 23 21 17 22 23 20 20 17 18 24 27 22 15 14 13 12 13 16 19 20 20 21 25 29 31 30 23 18
43 39 32 25 25 29 41 30 20 13 16 21 22 19 23 24 17 14 17 17 21 21 16 15 20 23 18 16 14 12 12 13 15 17 19 21 23 25 27 26 27 20 14 15
38 32 29 26 25 25 22 21 15 12 15 20 18 19 23 25 21 16 16 16 20 19 18 18 17 16 15 14 12 12 14 14 15 18 19 21 23 23 24 22 22 14 14 15
30 26 24 23 22 21 18 17 14 15 16 17 17 18 21 22 22 18 17 19 19 16 15 16 15 13 13 12 12 13 13 14 16 17 18 21 23 23 22 20 19 15 14 15
21 17 13 11 10 12 15 17 17 16 16 17 18 20 21 21 20 22 21 15 17 14 12 12 12 12 13 13 14 14 14 15 16 18 19 21 21 21 20 17 17 15 15 16

GFSNW_500_spd_141.txt.gz
Wind_Speed
69 67 67 67 61 72 74 73 72 68 68 69 69 65 59 52 49 50 47 46 44 47 46 49 45 45 47 48 46 46 46 48 50 50 53 52 54 52 52 53 50 49 40 49
71 67 64 61 61 51 66 69 69 69 66 69 65 63 59 61 57 54 50 44 42 47 47 52 51 51 54 51 48 48 50 52 50 53 52 52 49 46 47 46 48 47 41 41
73 71 67 62 58 58 48 56 64 65 68 66 62 59 57 56 54 57 60 51 46 44 44 52 56 57 53 52 51 51 53 51 50 47 36 37 41 41 41 41 43 38 40 40
78 75 70 66 61 57 52 57 61 57 64 65 63 59 55 52 51 45 43 42 46 46 41 45 51 56 56 56 57 56 51 47 46 43 42 41 32 38 38 39 35 37 38 38
75 77 75 68 65 58 64 53 59 53 54 54 55 56 54 53 48 47 44 43 41 43 45 46 48 46 51 51 51 47 40 41 41 39 36 38 41 38 39 37 37 39 36 37
68 73 77 72 67 63 66 57 63 53 53 48 52 54 50 51 46 47 46 42 40 42 38 43 44 46 39 39 32 34 38 36 31 31 32 40 43 36 35 35 35 35 38 37
43 61 73 74 71 69 63 64 59 49 52 52 46 47 47 49 49 50 45 48 44 44 45 44 44 39 41 43 45 39 39 36 34 34 41 42 37 35 31 31 31 35 34 31
43 48 65 71 66 64 66 64 60 52 52 48 44 37 47 49 51 49 51 49 48 49 42 42 38 46 36 39 40 37 29 32 33 29 33 34 30 31 31 30 32 34 32 32
45 43 56 69 61 55 59 64 69 54 48 50 43 35 38 49 53 56 53 54 51 49 46 38 41 37 41 37 39 37 30 33 33 34 35 36 29 34 31 30 31 31 30 31
44 45 56 71 62 51 59 57 54 58 48 43 42 36 30 38 46 51 53 54 54 52 48 43 39 42 38 34 41 45 41 38 36 34 36 34 33 34 27 30 29 28 31 33
48 42 58 66 69 46 57 68 63 53 60 36 39 37 34 36 42 48 51 54 55 54 53 50 40 38 38 38 43 45 43 40 35 36 38 34 32 32 28 29 30 31 33 32
45 51 51 54 58 71 47 51 54 59 57 56 50 38 35 35 42 52 51 47 52 42 49 48 45 39 38 39 39 35 37 36 35 33 30 28 30 29 30 35 38 37 35 34
45 46 48 49 62 60 52 53 51 48 57 38 40 42 34 30 30 34 50 51 52 55 50 46 43 42 38 30 29 34 32 35 33 29 30 30 30 31 33 32 31 32 33 34
49 48 49 47 51 56 56 54 48 47 54 52 36 35 31 30 34 30 39 53 45 48 46 46 39 38 39 40 40 35 32 33 32 32 31 30 31 33 31 32 32 34 34 34
56 48 45 47 38 49 50 46 49 51 48 51 42 37 32 32 33 28 27 41 47 35 39 35 35 39 36 30 34 35 35 34 32 28 30 32 32 28 28 30 33 35 34 35
57 49 44 43 45 44 42 42 45 46 42 44 34 33 32 33 27 24 26 30 43 40 33 28 32 34 37 36 36 32 28 27 27 30 32 31 28 29 29 32 35 34 33 37
51 45 44 43 40 41 42 43 38 35 35 34 32 34 34 27 24 19 18 23 28 36 32 26 24 22 25 26 30 29 25 26 27 27 28 29 29 30 31 34 33 34 32 27
59 48 42 44 40 40 43 44 38 38 39 41 36 32 31 30 21 24 21 25 22 28 32 28 25 25 26 28 28 25 25 26 28 27 28 28 27 30 33 33 33 27 26 27
43 53 50 41 43 42 38 34 35 33 30 41 40 32 27 27 23 26 24 24 21 16 18 20 25 21 23 20 18 23 23 25 26 28 27 27 29 32 33 28 24 25 26 26
47 46 46 43 32 33 30 26 28 29 32 36 35 32 32 31 26 26 33 27 18 22 21 17 21 20 15 14 17 22 25 26 27 26 27 29 30 31 24 24 23 24 23 24
37 37 38 32 31 29 31 31 33 33 32 33 32 37 32 27 27 31 23 26 19 22 22 23 22 16 14 18 19 21 24 25 25 26 29 30 30 22 22 22 22 21 22 26
35 34 32 30 29 27 29 34 32 33 37 38 36 36 29 25 27 26 25 30 19 23 28 27 24 20 14 15 20 20 23 25 26 26 29 27 23 22 22 22 21 21 24 28
27 25 25 20 25 22 29 32 31 33 36 28 28 27 27 28 29 23 16 18 20 21 23 21 20 18 21 23 25 26 26 27 28 26 23 22 23 22 23 22 21 22 26 28
20 21 26 26 20 25 28 25 17 15 17 22 25 28 27 31 32 18 25 24 18 19 22 20 15 19 24 25 25 27 28 27 22 21 23 23 23 24 23 21 21 23 26 26
23 23 20 19 19 18 17 17 17 17 18 28 32 26 20 27 33 26 19 22 23 17 14 14 16 17 20 22 22 21 19 17 18 20 21 22 23 23 23 22 22 25 25 25
19 20 16 21 22 22 20 19 23 21 17 24 26 24 20 19 28 28 27 23 16 13 13 13 17 20 23 22 17 15 16 17 18 19 20 21 22 22 22 22 24 25 24 23
26 26 23 17 14 18 21 18 16 18 20 21 21 22 23 24 26 27 25 18 18 20 19 19 19 18 15 14 14 15 16 17 18 19 21 22 22 22 22 23 24 24 23 22

GFSNW_500_spd_144.txt.gz
Wind_Speed
67 69 71 73 72 70 68 76 78 73 72 72 76 78 69 61 60 53 52 47 41 42 42 40 36 38 38 46 48 47 43 45 47 49 44 46 49 51 48 52 53 53 57 60
66 63 63 66 64 62 47 59 71 73 71 74 74 74 69 65 61 51 50 52 46 44 38 41 38 34 32 36 40 45 46 48 46 47 50 53 52 52 54 54 56 57 57 55
73 67 63 61 60 59 60 51 52 55 63 59 63 67 67 65 57 51 51 47 46 41 39 40 43 44 45 43 44 45 45 47 49 49 48 53 51 48 48 49 51 52 53 52
75 74 70 65 59 57 57 58 57 55 57 58 59 60 60 61 57 55 52 53 51 51 48 41 41 46 50 49 47 50 50 50 47 48 53 51 47 45 43 40 43 45 46 37
55 72 74 70 64 60 60 58 57 60 50 47 48 48 57 60 55 52 54 52 47 47 47 45 47 45 39 38 38 38 43 47 49 50 50 49 46 41 48 50 41 32 37 43
42 51 70 72 69 68 66 65 56 51 58 46 43 47 50 48 50 52 46 45 46 46 41 44 40 39 39 34 35 35 39 38 38 41 38 40 47 38 40 42 45 42 42 39
42 39 53 70 73 73 73 65 53 55 49 49 43 32 35 44 44 45 44 46 48 47 43 39 44 45 44 43 43 39 34 27 31 29 33 42 39 38 40 37 37 39 37 33
41 37 47 65 72 76 76 71 61 56 61 34 41 40 32 39 48 47 45 35 36 44 44 43 41 42 45 39 35 36 35 36 35 37 36 34 31 39 38 39 39 32 33 32
37 37 47 56 73 77 79 75 53 53 61 57 44 41 39 36 42 46 49 44 44 41 48 45 48 38 37 37 38 39 38 40 42 43 38 41 36 35 34 35 36 32 33 30
35 38 45 50 63 76 77 73 59 35 52 49 42 39 35 37 37 45 47 48 42 37 34 48 50 53 45 35 39 38 34 38 42 40 36 31 32 33 35 36 32 33 29 28
34 40 43 45 55 73 76 75 64 49 49 56 49 33 35 33 39 39 44 49 50 29 39 41 43 49 47 41 37 34 41 40 41 41 39 39 34 37 38 33 33 30 30 31
36 41 42 41 51 67 71 73 65 63 60 47 42 39 37 43 49 37 39 43 48 56 53 51 51 45 45 35 37 38 39 39 39 41 44 42 40 36 34 31 27 29 32 32
35 32 32 35 48 66 71 64 54 56 61 52 45 43 35 43 32 34 37 38 44 36 33 42 54 49 45 51 47 40 37 37 38 37 38 36 33 33 28 31 31 32 31 34
33 29 30 28 40 63 65 58 56 49 46 52 47 46 42 33 34 34 40 42 41 44 36 36 40 45 45 45 45 42 34 31 33 34 33 31 27 31 31 33 32 32 31 32
34 33 37 30 37 65 33 40 36 42 41 46 44 46 44 38 38 36 30 32 38 45 44 53 42 51 48 47 46 46 40 38 34 31 29 27 31 34 32 28 30 31 32 31
39 47 37 42 42 44 42 42 42 39 36 39 44 42 37 37 32 27 27 29 38 42 43 39 52 47 51 52 46 38 38 36 39 36 34 35 33 30 26 29 29 31 31 33
39 37 40 37 47 44 43 38 41 40 43 37 35 40 33 29 27 26 25 31 33 33 38 35 38 36 43 40 35 32 35 33 31 28 29 30 26 26 29 30 30 31 34 36
41 39 34 33 33 36 40 37 34 35 36 38 37 30 33 30 25 27 28 31 30 25 29 37 40 29 31 36 28 28 24 21 23 27 26 25 26 24 27 27 29 32 34 34
39 39 38 30 34 30 30 32 30 28 30 32 37 29 30 29 30 28 35 28 19 16 19 26 36 30 32 23 19 21 22 25 25 28 27 26 26 26 25 27 30 31 33 27
38 32 32 26 25 28 28 28 32 33 34 31 25 29 28 31 30 31 29 26 23 19 12 17 27 28 24 20 15 18 21 22 21 23 24 25 25 26 27 29 30 32 26 24
36 34 32 28 24 21 22 26 30 34 35 38 31 31 32 27 26 26 27 22 25 16 11 15 15 10 12 14 12 15 18 21 22 23 24 25 26 27 29 29 30 26 25 25
35 25 19 17 18 21 21 24 26 28 30 27 29 33 32 27 23 26 26 24 21 21 7 18 18 11 12 13 15 16 14 18 21 24 26 26 27 28 29 29 26 25 24 26
31 28 26 24 22 20 22 19 20 20 20 23 27 28 31 29 29 22 18 20 20 23 18 16 19 21 18 21 21 20 20 21 23 24 23 25 27 29 27 24 24 24 26 27
24 21 23 20 21 17 19 20 21 20 19 24 26 27 25 27 28 23 18 15 21 22 14 12 15 13 18 19 23 23 22 23 24 25 27 28 28 26 24 23 24 25 27 27
11 14 12 9 9 19 20 22 18 19 18 17 19 23 23 24 26 24 20 16 20 17 13 13 12 15 18 18 19 22 23 25 27 27 26 23 22 22 23 24 25 26 28 28
11 6 5 7 10 13 12 12 13 14 16 19 19 21 18 17 22 25 22 21 21 17 15 15 12 12 15 21 23 25 25 20 18 17 18 18 20 22 23 24 25 27 27 28
15 8 11 18 18 15 14 17 19 14 15 18 20 16 15 17 23 27 27 21 18 19 19 18 18 18 20 20 16 16 15 14 15 16 17 19 20 21 23 24 25 27 27 28

GFSNW_500_spd_147.txt.gz
Wind_Speed
61 60 62 64 66 68 70 67 74 73 73 71 74 73 69 63 61 62 55 45 49 57 47 43 44 44 44 45 43 41 44 45 47 47 48 46 47 45 42 48 45 42 43 48
64 63 61 60 61 64 64 61 50 71 66 69 71 71 66 64 63 62 62 54 49 47 49 50 49 41 45 43 42 40 38 42 45 46 48 49 47 48 47 44 45 48 47 51
67 67 66 62 58 59 61 60 64 54 52 57 58 62 65 63 61 64 59 55 46 44 46 40 42 42 42 42 41 38 41 51 51 46 47 46 47 46 49 49 50 50 51 49
47 63 69 67 63 58 59 59 56 56 58 56 48 44 57 65 63 61 58 53 57 46 48 42 40 46 44 42 38 41 43 43 43 45 48 50 52 50 49 51 50 50 46 44
39 44 54 69 67 65 65 61 64 60 51 51 54 44 38 46 56 60 63 57 53 44 47 44 39 39 38 37 39 47 44 40 38 39 44 48 52 40 44 44 44 46 45 43
35 41 45 49 64 71 69 63 67 59 46 43 37 47 37 36 44 53 54 51 49 48 42 44 46 48 47 43 42 39 42 44 41 39 31 36 41 32 38 38 36 39 42 40
35 39 43 46 51 67 69 64 59 60 57 58 41 38 40 34 39 44 44 44 44 38 44 45 40 45 40 36 38 32 34 42 30 30 34 39 30 28 33 39 36 35 38 39
34 36 40 45 46 56 69 68 63 42 62 45 39 40 42 29 32 41 43 35 38 44 42 44 48 46 40 42 42 45 39 37 38 35 32 32 25 32 31 32 31 34 36 35
32 37 39 43 43 51 63 71 67 42 54 54 36 40 37 41 28 35 45 46 45 42 36 41 50 52 43 39 39 46 42 38 36 34 33 37 26 31 34 37 35 34 34 33
29 33 37 41 41 50 57 71 71 55 44 39 46 42 27 40 38 29 39 44 44 41 54 45 34 45 46 44 44 37 32 36 35 34 37 40 36 38 40 42 35 31 31 33
27 33 36 38 39 47 54 71 73 75 46 30 40 39 30 24 26 33 30 44 47 45 47 42 27 36 45 46 48 40 33 30 32 34 41 41 41 36 36 34 34 34 35 36
27 33 37 35 35 42 51 70 74 73 68 29 38 30 37 43 35 39 41 38 42 43 47 42 34 31 45 46 43 41 37 34 31 33 39 31 33 37 39 39 41 39 41 36
29 33 33 33 32 39 48 67 72 69 70 34 39 39 29 32 18 30 35 29 29 32 37 40 38 39 33 33 29 34 34 34 37 35 38 37 34 37 38 40 38 37 34 30
27 29 26 23 25 32 43 63 70 64 60 59 29 34 48 44 26 16 31 36 33 34 40 44 48 48 46 43 41 39 38 40 38 37 37 37 36 35 32 30 30 27 31 32
24 22 24 23 29 28 40 58 66 61 52 41 38 36 42 39 32 33 25 27 29 33 39 40 37 29 27 34 34 34 35 38 40 41 35 34 35 30 31 31 38 34 32 33
28 26 24 22 19 22 43 54 64 53 48 34 35 43 47 35 36 31 34 32 28 34 40 40 39 39 45 41 42 35 35 34 37 36 35 37 37 31 31 32 31 31 31 30
25 24 25 24 21 18 42 55 56 29 23 30 28 30 35 41 40 38 28 27 27 31 36 40 40 43 52 54 55 42 40 38 40 37 36 38 40 43 41 35 31 32 31 31
31 33 38 43 28 32 45 42 42 33 34 30 30 26 28 30 31 28 26 31 31 34 37 39 43 45 45 44 36 39 43 40 40 41 41 40 37 35 30 27 29 30 27 28
30 31 31 39 33 43 34 41 37 37 37 31 24 27 21 26 26 29 26 24 21 25 29 32 32 31 33 31 25 23 27 33 31 33 37 42 39 32 27 26 25 25 26 28
31 32 31 32 42 42 44 45 33 25 27 25 24 21 23 19 24 26 27 24 22 31 40 31 25 24 26 31 26 22 23 26 30 33 32 28 27 26 28 26 26 26 28 27
32 26 27 29 29 31 31 29 26 23 21 19 19 21 22 27 26 24 22 21 26 29 24 21 7 2 7 21 22 21 22 24 27 24 22 23 23 24 24 24 25 27 28 28
26 23 20 16 14 15 17 19 20 20 20 20 22 23 24 20 22 25 24 21 26 26 24 19 12 6 8 7 11 13 14 16 18 15 18 20 23 23 24 25 26 28 28 28
22 19 15 10 9 11 12 12 13 17 24 28 26 29 33 32 27 23 19 23 24 20 18 11 5 5 10 10 13 16 14 15 16 17 17 21 24 24 24 24 27 28 27 25
9 9 10 9 7 9 11 15 23 19 15 18 23 20 22 27 30 25 24 22 18 22 11 7 5 7 11 14 16 19 20 20 20 21 22 22 23 25 27 27 27 25 24 24
14 14 13 14 11 10 13 16 16 16 17 15 17 19 20 23 24 28 27 21 18 14 12 9 8 8 12 15 16 18 20 22 23 23 22 25 27 28 28 25 23 22 22 23
11 6 5 7 9 10 14 14 15 14 15 18 19 21 23 24 25 22 22 24 18 8 12 13 13 11 10 12 10 16 22 25 27 27 26 24 23 22 21 21 21 21 22 23
14 8 8 9 3 6 10 11 13 15 16 16 19 17 18 16 16 20 24 22 17 15 16 16 17 16 16 14 17 19 14 13 14 15 15 15 16 18 19 19 20 21 22 23

GFSNW_500_spd_150.txt.gz
Wind_Speed
60 60 59 58 60 63 65 67 70 67 68 66 71 71 69 64 63 63 59 60 56 52 44 45 46 44 43 42 41 39 42 44 44 43 46 47 49 47 50 50 50 45 45 52
63 62 61 60 59 61 63 64 65 63 56 57 66 64 64 64 63 61 59 54 51 49 47 42 42 39 37 40 39 41 44 46 43 43 50 52 54 54 55 54 46 44 49 52
60 61 61 61 62 61 64 62 62 61 60 48 49 55 57 59 58 60 53 50 52 50 46 44 42 43 39 38 38 45 44 43 40 39 42 48 48 48 50 49 45 45 50 47
45 52 58 62 63 64 66 64 62 60 55 55 43 43 39 44 54 59 56 49 48 45 48 48 47 44 42 38 36 49 49 45 43 43 44 41 46 46 46 50 51 52 50 48
29 29 32 41 55 66 70 67 61 59 60 50 55 50 40 37 37 47 56 58 48 48 51 48 47 47 43 39 36 42 46 47 45 45 46 47 51 41 43 48 51 52 48 44
31 31 32 31 38 47 63 68 62 57 55 55 52 52 32 43 29 39 42 48 50 51 44 42 43 42 42 40 38 41 44 39 42 43 49 50 53 42 44 45 45 44 43 38
26 28 31 31 33 41 47 54 60 60 54 56 58 52 42 38 43 35 38 44 50 44 43 46 45 44 44 44 41 43 45 44 43 47 50 50 42 40 40 39 38 39 38 37
26 25 29 30 31 37 42 46 54 60 56 50 46 40 38 37 47 40 34 39 37 44 43 47 50 51 51 48 49 45 43 41 41 41 42 45 34 38 38 40 32 32 33 30
31 30 28 32 34 36 41 43 47 60 60 57 43 38 27 41 45 43 35 39 39 35 42 41 45 46 46 46 44 44 41 47 42 44 39 42 43 38 36 38 33 33 28 28
33 33 32 36 34 36 39 39 43 59 61 57 52 50 40 41 33 35 38 36 37 39 42 44 45 41 46 52 49 46 43 44 47 48 46 45 40 40 37 37 29 30 32 35
33 34 34 34 33 36 37 36 42 58 60 54 35 43 52 45 43 39 32 35 43 46 49 45 35 42 41 54 45 48 50 44 39 44 38 39 38 36 34 33 35 33 33 31
32 32 33 31 32 35 36 38 37 58 62 50 35 40 52 52 36 35 45 33 33 44 38 37 41 34 26 21 33 39 39 44 36 30 29 29 31 33 34 37 37 37 34 34
28 31 31 29 30 31 34 32 38 64 66 41 47 35 16 21 28 27 35 33 34 33 40 42 41 34 35 22 29 32 36 34 32 33 39 33 32 32 29 28 29 31 33 36
28 29 25 28 29 30 30 28 43 63 64 52 47 31 24 25 23 30 29 38 36 32 30 29 30 30 29 31 34 30 30 35 33 35 33 32 34 35 37 32 30 31 31 31
24 23 27 27 28 28 26 27 45 65 66 48 53 25 21 29 25 29 17 29 35 34 28 22 25 24 24 26 33 38 37 32 30 30 31 36 35 33 31 29 32 36 34 32
19 23 23 23 23 24 24 27 45 65 68 43 46 33 19 16 19 36 22 22 30 29 27 24 23 20 21 23 21 19 20 26 29 28 33 38 40 36 33 31 31 33 31 31
25 23 22 21 21 21 23 26 44 59 64 28 14 46 28 25 26 34 32 25 23 22 23 24 25 26 30 33 33 31 32 34 37 35 35 34 34 34 34 37 34 36 38 38
22 17 14 9 17 23 18 30 42 54 53 32 21 19 24 23 24 27 28 25 17 20 22 26 27 31 37 43 41 41 44 42 45 48 45 40 35 34 34 35 36 35 38 38
22 26 27 25 29 30 32 32 36 42 36 22 27 20 18 16 23 24 29 29 28 26 29 33 37 41 43 39 45 45 41 37 36 39 41 43 38 40 39 37 35 31 33 34
31 25 26 27 33 30 37 37 39 41 31 28 22 20 18 16 19 20 21 26 29 32 31 33 35 37 37 38 42 28 24 24 29 32 29 36 39 33 30 31 35 36 34 33
27 25 23 29 39 42 36 41 38 36 26 25 24 18 18 17 18 22 22 21 24 23 26 31 35 30 29 26 21 18 26 26 22 19 20 24 27 27 25 26 24 28 32 32
30 29 24 26 25 25 19 23 27 24 20 21 19 18 17 16 18 18 19 20 21 21 24 29 30 26 12 8 8 11 15 17 17 15 18 24 24 25 25 26 25 27 28 28
22 20 24 24 21 18 18 19 16 13 13 14 15 14 15 17 16 16 19 20 23 24 25 21 17 11 7 8 9 11 11 11 12 12 14 17 16 19 21 24 26 26 26 26
9 8 8 13 18 15 16 15 16 15 14 17 17 16 18 19 22 25 22 24 25 24 18 16 14 7 6 7 8 10 11 14 14 16 14 15 17 19 20 22 23 25 26 27
2 6 8 10 12 14 17 16 17 15 13 17 18 18 20 19 28 29 29 28 26 16 12 20 8 3 4 8 10 11 14 17 19 20 21 22 23 24 23 25 27 27 28 28
7 8 6 7 7 7 9 13 15 15 16 15 13 15 17 19 20 21 26 27 21 13 11 9 11 6 5 7 9 11 9 13 19 22 24 25 24 27 28 26 26 25 24 23
1 3 3 2 4 5 9 14 16 19 21 20 21 20 20 22 20 18 18 17 16 19 14 12 12 11 11 11 11 11 13 13 12 14 20 19 21 20 19 18 18 19 20 21

GFSNW_500_spd_153.txt.gz
Wind_Speed
60 59 60 58 58 60 62 64 67 65 63 64 68 71 67 62 59 59 57 53 53 50 52 50 49 51 42 38 40 40 41 41 48 48 43 45 45 47 52 56 59 59 59 57
58 59 59 58 59 59 59 58 57 57 54 58 63 65 64 62 60 60 58 59 53 45 44 49 47 42 41 36 38 37 37 40 42 44 47 47 45 45 48 52 54 56 55 50
59 58 58 58 59 59 61 60 58 58 58 56 55 55 57 56 57 57 55 56 49 48 49 45 43 42 37 37 37 34 42 39 36 36 38 43 45 45 53 53 53 53 51 45
57 59 59 59 58 58 62 61 60 60 61 57 54 47 49 41 50 54 52 55 52 47 49 45 44 42 38 39 36 47 47 41 46 38 39 40 42 43 46 51 50 52 48 48
31 44 52 54 58 59 63 62 59 59 58 55 52 49 45 40 43 41 47 49 48 48 50 43 45 42 44 48 50 50 49 45 45 46 53 50 45 43 47 41 49 58 52 45
30 27 27 31 38 47 53 57 60 61 60 59 55 52 52 51 39 40 38 42 44 47 43 44 49 48 50 53 52 50 47 43 42 41 48 49 52 41 48 50 45 40 40 39
35 33 32 32 33 33 30 31 41 56 62 63 60 52 45 48 57 48 40 39 40 35 46 52 52 50 55 51 52 51 48 43 44 44 47 53 47 42 39 45 49 49 41 40
37 35 32 31 34 34 33 31 31 37 43 58 62 58 55 46 39 50 44 41 32 34 42 53 52 53 58 52 52 50 47 45 47 47 50 53 44 46 48 41 38 42 46 46
34 36 30 25 22 24 28 27 28 33 38 43 53 55 53 57 43 56 39 39 39 35 38 45 50 50 51 49 46 46 45 48 49 54 53 53 44 45 47 44 44 39 38 38
37 37 32 28 26 26 25 25 30 34 36 34 47 52 48 54 37 36 41 37 40 37 39 36 40 45 43 45 45 50 52 51 52 53 52 48 41 45 38 43 41 41 34 32
37 37 33 33 29 29 34 33 36 37 39 32 46 52 46 49 46 26 37 42 42 36 38 39 33 37 40 37 41 45 50 52 47 44 57 48 41 51 46 39 37 39 41 40
34 35 35 34 30 33 40 37 37 36 38 31 47 56 55 33 44 28 30 41 39 41 40 44 45 41 43 39 46 44 43 52 54 54 46 41 41 43 44 41 42 37 34 33
32 31 32 34 31 33 35 36 34 35 34 33 51 55 52 45 34 38 30 27 31 34 35 40 42 47 45 34 20 29 25 32 47 45 39 39 37 32 30 30 28 30 33 34
30 30 35 32 30 35 35 33 31 30 28 35 50 45 40 34 28 32 32 36 40 40 36 31 31 41 39 35 38 23 28 35 35 34 31 31 31 29 32 31 30 28 27 30
24 26 27 30 33 33 29 28 29 29 27 43 50 43 34 36 25 30 40 39 31 46 39 33 25 19 27 27 24 32 28 28 31 31 30 32 30 30 29 29 32 34 36 36
24 28 31 31 28 26 28 26 28 27 26 43 51 34 26 23 16 17 40 29 37 41 43 29 25 20 13 10 8 11 11 14 26 31 30 21 24 27 29 32 33 36 37 35
27 26 22 22 24 25 22 21 21 23 37 50 29 13 21 17 18 20 24 27 34 30 27 29 21 15 13 10 9 13 18 20 23 27 29 27 26 28 31 36 38 39 38 35
24 17 17 19 22 23 23 20 19 31 46 45 9 16 28 18 21 22 14 21 20 24 21 14 16 18 16 17 16 23 26 27 28 32 39 42 43 37 32 33 34 32 33 36
13 13 17 15 19 19 24 24 22 29 45 35 20 24 25 24 22 15 15 16 20 19 15 14 17 19 24 25 28 31 33 36 33 38 40 43 51 50 45 40 39 37 32 32
20 16 13 14 19 20 25 22 22 27 51 34 10 6 14 14 12 11 12 15 14 17 19 20 22 22 27 33 35 39 44 40 42 34 28 26 30 37 40 45 43 37 35 34
25 28 21 35 25 29 26 18 26 28 41 30 14 18 16 15 14 15 15 14 16 20 20 21 21 20 26 31 34 37 35 35 30 26 22 20 19 24 28 32 32 30 28 27
24 28 30 25 20 21 32 29 30 36 32 16 16 17 15 15 14 14 16 16 16 17 17 17 19 22 27 29 22 25 19 12 9 14 14 14 16 19 22 24 24 25 26 26
17 18 22 22 24 21 25 27 29 36 22 16 18 13 13 14 14 13 14 14 17 21 24 22 21 19 18 19 14 14 12 11 12 13 14 13 13 17 16 21 24 21 22 25
18 16 15 13 8 7 12 20 26 21 15 15 15 15 15 15 15 16 19 21 25 26 25 21 19 18 12 12 11 9 8 8 8 11 10 11 9 10 14 14 16 19 22 23
7 7 8 10 9 8 7 8 8 9 12 15 15 17 20 21 20 20 20 21 24 26 20 14 17 12 11 10 8 8 9 10 12 15 17 17 18 17 18 19 21 23 24 25
7 10 8 10 10 12 13 15 16 16 17 19 20 22 24 26 28 28 28 30 27 19 18 14 10 13 8 6 7 8 6 10 10 16 20 21 22 23 24 24 24 25 28 29
8 9 9 10 14 20 23 24 20 20 23 19 15 13 15 18 17 15 15 11 13 19 18 18 15 16 12 8 8 11 12 11 14 13 12 16 22 25 25 27 28 26 25 24

GFSNW_500_spd_156.txt.gz
Wind_Speed
55 56 56 57 57 57 56 57 58 58 57 59 63 66 67 67 63 62 62 61 58 56 52 50 51 47 42 45 54 45 44 47 43 45 44 48 47 41 41 43 53 57 57 52
55 52 52 53 54 56 55 53 51 53 52 56 56 55 54 56 60 62 59 59 54 49 49 48 48 44 40 40 35 35 36 43 43 48 50 46 48 50 53 50 56 50 48 46
53 52 50 50 51 52 54 53 52 53 52 52 50 48 51 47 55 55 56 59 52 46 40 37 48 42 43 40 35 34 33 40 39 38 45 49 49 47 49 49 53 55 54 46
56 54 52 51 52 54 55 56 52 51 51 49 46 39 41 42 48 50 50 54 55 50 50 55 52 42 39 42 39 33 40 41 47 39 45 42 46 46 45 48 50 48 49 51
43 52 51 50 50 52 58 56 53 50 47 46 46 46 46 42 40 43 46 49 46 52 56 55 49 39 44 50 43 39 44 48 50 48 45 55 49 38 40 40 39 41 44 44
26 27 39 44 48 54 55 54 55 54 52 49 48 46 46 47 48 48 46 45 47 51 49 50 49 50 48 45 44 48 49 51 50 54 54 48 46 38 47 45 51 49 44 40
32 30 29 30 29 26 27 37 42 47 52 50 48 49 48 47 47 45 45 48 49 35 42 49 45 46 45 47 47 41 51 44 37 51 55 53 48 47 49 51 48 47 44 43
38 35 32 32 30 26 23 22 23 22 26 35 45 49 50 50 50 48 49 42 40 42 42 45 46 53 50 49 52 42 54 56 57 59 59 56 55 54 53 52 47 42 46 43
41 39 35 34 31 29 28 24 24 27 26 21 26 36 48 53 52 49 47 52 46 40 39 45 41 49 54 54 56 52 52 56 57 55 50 57 52 49 48 49 46 40 42 43
35 33 32 31 32 27 25 16 18 22 24 17 20 26 32 47 54 50 40 38 45 44 39 43 39 41 43 51 55 53 53 46 54 51 54 56 48 42 45 49 39 41 37 35
34 35 35 32 32 30 27 19 20 21 22 19 23 26 29 35 51 49 55 49 28 46 39 42 36 33 36 39 44 51 53 53 51 53 54 54 42 45 47 42 42 42 41 32
33 35 36 33 33 30 28 28 21 25 29 27 31 33 31 34 46 50 50 45 26 34 29 36 41 37 37 25 36 41 49 41 48 51 54 52 48 47 47 45 44 39 36 37
33 32 35 34 33 28 27 35 22 37 42 38 37 37 26 34 45 48 47 36 29 32 29 35 37 37 41 43 30 31 39 39 37 41 40 40 46 34 32 34 36 35 31 34
32 28 30 33 31 30 32 28 22 36 41 43 38 31 30 39 44 40 48 47 28 29 41 44 40 38 36 40 44 40 35 27 31 39 40 34 38 40 32 30 31 27 26 29
29 27 28 30 31 29 27 24 34 38 40 43 28 26 31 49 40 37 37 36 27 28 26 35 34 36 28 25 33 39 35 33 30 27 20 21 25 30 27 27 31 32 32 30
26 26 26 23 26 31 30 32 33 37 43 28 13 11 40 48 33 23 24 16 27 30 29 35 42 24 24 14 21 18 18 20 25 29 26 27 24 23 25 26 25 28 29 32
25 30 30 31 32 32 32 35 35 33 27 15 20 25 28 32 29 23 26 14 21 31 32 37 38 32 30 19 11 11 10 7 6 10 10 14 18 23 28 27 29 30 32 33
23 25 28 32 34 37 37 32 26 24 18 24 30 18 27 22 29 15 10 14 22 27 31 35 32 26 23 16 10 11 10 11 14 18 22 25 25 27 29 29 30 32 32 34
25 26 25 23 22 24 21 22 19 16 19 34 17 10 8 16 24 16 15 18 24 28 21 25 27 25 22 11 11 14 17 19 23 28 30 34 33 34 37 38 41 42 40 39
12 12 14 14 15 20 22 22 22 22 40 28 18 6 19 14 21 14 18 18 17 13 13 14 10 9 12 15 16 17 21 25 29 36 34 33 33 31 28 32 36 38 43 43
18 22 13 17 17 17 16 15 16 26 34 21 13 9 7 22 22 19 16 15 11 8 8 7 5 8 14 17 22 27 27 30 38 35 35 24 19 23 21 22 26 33 37 40
13 17 25 25 20 21 19 11 15 37 32 14 11 12 16 14 14 13 13 13 11 8 9 8 9 13 15 18 24 27 30 30 26 25 20 17 14 11 12 15 21 25 23 26
19 17 19 13 9 6 9 10 12 34 19 8 12 14 17 15 14 13 13 11 10 9 11 10 12 13 15 20 28 25 20 18 17 14 13 11 13 15 15 15 18 17 20 24
10 8 5 10 13 8 6 15 22 22 25 12 14 15 12 12 11 10 10 10 11 12 13 11 14 16 19 27 25 16 16 13 11 9 9 9 8 11 9 9 8 12 18 20
14 11 12 12 14 14 12 13 16 25 15 6 7 8 9 9 8 10 11 12 12 11 12 17 20 22 28 28 16 14 14 12 11 12 15 16 16 14 13 14 18 15 19 21
5 6 6 5 4 4 4 5 6 9 7 8 9 12 12 12 14 15 18 20 20 24 27 26 24 27 24 18 16 14 13 11 10 12 15 16 22 23 22 23 23 23 24 24
4 4 6 7 10 11 12 13 14 16 18 19 19 18 21 22 21 20 26 27 28 29 33 36 29 27 19 14 12 10 11 12 14 12 15 17 16 18 23 27 28 27 28 28

GFSNW_500_spd_159.txt.gz
Wind_Speed
49 51 56 59 60 60 56 54 53 49 52 55 59 59 56 53 56 59 61 64 63 58 59 59 55 53 48 48 49 50 45 41 41 40 42 44 41 41 43 50 54 51 54 54
47 45 53 54 56 57 57 54 50 48 48 53 53 54 53 51 53 53 52 54 58 53 52 54 55 50 47 47 49 50 43 44 45 44 45 42 38 47 45 46 40 45 44 54
47 44 41 46 50 49 50 50 48 47 46 46 48 49 49 51 48 49 49 50 51 46 43 51 51 48 44 43 45 44 46 40 40 40 41 46 40 51 54 40 46 55 53 47
44 44 44 42 41 42 43 47 48 47 44 43 43 44 43 43 46 47 44 47 47 50 54 50 46 35 33 27 38 46 50 46 43 39 27 36 48 42 45 52 45 41 50 55
43 46 46 44 36 40 44 44 47 47 43 40 41 40 39 40 44 43 46 44 47 48 49 48 53 55 47 41 41 41 40 43 43 45 48 47 41 40 42 40 40 46 43 40
27 24 29 38 41 44 47 45 44 46 47 45 41 39 39 41 40 40 45 49 49 45 43 51 54 55 58 53 36 42 43 42 46 46 48 49 50 37 43 44 51 46 39 34
32 30 27 25 28 38 42 39 40 44 46 46 42 40 39 39 44 45 37 42 42 40 42 45 48 56 60 66 59 45 42 48 44 41 48 54 50 50 48 49 42 48 44 45
38 35 31 27 24 20 21 21 20 21 29 34 37 39 40 41 41 42 49 44 40 41 44 43 47 44 51 54 57 59 43 45 37 29 30 50 50 49 53 50 49 38 37 40
33 36 35 31 27 25 25 21 20 18 14 9 16 25 34 40 43 43 41 41 44 42 29 38 39 43 41 44 50 54 57 47 56 39 40 51 49 48 43 47 48 40 44 44
30 30 32 34 31 27 24 20 20 22 15 11 13 14 17 23 32 42 44 44 43 40 42 39 35 36 31 38 38 44 50 56 56 50 40 46 51 55 55 54 47 43 40 36
31 30 28 29 30 27 24 16 19 18 12 13 10 11 9 12 17 25 36 50 46 44 37 35 38 34 27 29 37 37 38 48 49 59 54 48 48 49 53 49 47 46 46 42
34 30 29 28 26 24 22 19 21 17 18 13 14 12 17 22 22 25 26 36 50 46 39 30 30 36 39 34 33 26 29 32 40 49 56 50 49 49 43 43 44 42 41 40
36 30 31 29 27 26 24 23 22 22 20 17 22 15 25 27 31 34 29 29 48 43 40 33 32 29 35 33 33 35 32 23 27 29 35 37 39 40 42 44 46 47 43 37
36 32 30 31 28 28 25 29 21 22 28 31 24 22 29 37 39 38 31 31 52 51 47 28 25 26 22 30 32 34 36 38 32 27 28 33 31 34 32 35 32 35 30 31
33 30 28 29 30 28 27 28 24 24 23 27 28 28 35 41 44 33 28 43 52 51 46 33 25 20 17 19 27 28 28 32 35 33 29 28 28 26 30 27 25 30 28 25
32 27 29 24 27 29 25 32 29 24 24 40 34 33 37 41 36 25 32 40 40 39 31 31 25 30 26 27 23 16 22 21 21 24 24 22 22 19 19 20 21 21 22 23
28 25 23 23 27 24 28 35 34 24 27 30 30 21 12 11 15 25 27 27 27 30 30 27 25 29 25 23 14 13 16 12 10 6 7 18 20 15 17 16 17 21 24 25
25 26 21 21 25 26 30 32 32 32 28 25 22 13 8 16 29 18 16 13 17 23 29 24 25 28 30 23 15 15 12 7 6 3 6 9 9 10 13 16 18 19 23 26
26 23 31 33 32 32 33 33 30 26 28 25 21 17 18 21 14 13 6 11 13 12 21 23 23 17 30 22 21 15 11 9 9 11 11 13 17 21 23 25 26 29 29 31
20 21 21 24 27 31 32 32 30 28 35 23 19 19 25 20 19 14 17 13 18 22 15 11 15 26 22 26 18 12 10 10 13 13 18 25 26 28 28 29 32 36 38 39
4 2 11 14 21 26 28 29 31 30 28 18 17 16 16 13 16 16 15 18 18 22 22 22 15 15 12 8 11 10 9 13 15 20 26 28 35 40 34 27 23 27 34 37
11 9 10 13 8 12 16 20 23 35 31 21 22 18 13 16 20 20 19 19 18 17 16 14 15 12 10 9 8 10 12 16 21 23 25 29 25 18 18 18 18 18 21 28
7 9 14 11 4 9 19 21 20 31 21 13 20 14 15 18 21 21 19 17 17 16 13 11 12 9 11 12 12 10 17 19 15 15 19 18 16 13 15 16 14 15 18 13
6 3 3 6 2 13 19 19 24 25 15 18 19 17 15 15 17 15 16 14 11 8 10 11 11 11 11 13 14 15 23 18 14 13 12 14 11 9 11 12 12 8 9 13
15 17 19 15 16 20 16 23 26 14 12 17 17 14 12 10 11 11 9 10 9 9 10 11 12 12 11 13 17 21 24 19 18 17 17 16 15 16 16 15 14 11 8 11
11 10 12 13 16 16 12 8 7 12 14 13 12 12 12 10 7 4 4 6 8 11 14 16 18 19 20 21 25 27 20 18 19 17 17 13 13 15 16 20 21 21 20 19
7 6 2 1 2 2 2 1 4 3 8 5 4 4 9 11 11 12 12 15 20 23 26 30 34 33 32 31 31 21 21 19 16 15 12 14 16 18 21 19 18 21 25 26

GFSNW_500_spd_162.txt.gz
Wind_Speed
48 48 51 50 49 57 56 54 56 51 50 51 51 51 52 54 53 53 54 57 62 61 59 60 52 53 48 54 55 51 52 56 52 48 45 42 39 42 42 44 43 46 48 52
42 41 41 43 46 58 54 53 53 47 48 49 46 43 45 45 47 48 53 65 58 55 53 53 47 45 49 51 50 50 50 53 51 50 50 49 46 45 46 49 47 45 47 48
42 41 36 37 41 46 56 55 53 49 50 49 46 45 44 44 43 48 51 50 48 50 48 40 45 46 44 46 48 48 51 51 53 51 44 47 50 47 44 40 49 44 52 50
42 40 37 37 39 43 49 52 50 49 51 49 46 43 40 39 40 52 54 54 54 48 46 46 44 44 49 39 44 46 48 52 52 54 53 54 51 48 48 44 45 39 34 41
38 39 39 40 40 36 41 43 46 47 46 44 40 38 36 36 39 46 52 50 42 46 48 52 48 51 51 44 34 44 44 42 51 51 52 52 51 53 54 50 39 46 43 44
29 35 38 40 41 43 46 43 42 42 41 40 39 37 37 38 39 41 45 50 54 46 39 50 47 46 47 49 48 38 42 32 38 46 47 51 55 48 47 43 41 35 37 32
32 27 29 35 39 40 40 42 46 49 44 43 39 39 38 38 38 38 41 47 46 43 38 47 47 50 53 55 57 56 41 32 27 49 47 45 44 50 53 55 50 44 38 39
36 32 29 27 25 22 21 25 40 45 43 37 37 40 40 41 40 38 40 45 44 48 53 51 49 45 48 49 53 62 62 56 52 43 44 45 35 35 42 53 51 46 44 44
39 38 33 30 28 24 21 15 20 23 23 14 18 31 39 41 39 38 39 47 48 33 39 42 40 34 31 33 45 46 57 62 62 59 50 48 45 46 44 45 51 45 38 35
32 34 37 35 32 27 23 19 21 20 15 15 14 9 13 19 25 32 38 42 44 44 47 46 35 35 29 31 28 32 36 42 47 54 54 58 43 43 42 43 35 38 39 41
33 29 29 30 32 30 25 20 21 18 15 18 18 16 11 9 8 14 22 33 43 44 43 40 44 45 34 31 26 26 29 28 30 33 36 48 48 52 49 39 38 40 40 38
35 29 26 26 25 26 28 24 21 20 15 16 15 12 9 5 4 8 10 9 17 39 48 37 38 38 31 30 32 26 23 22 24 27 28 30 39 48 53 52 44 41 42 37
38 33 27 24 22 20 21 20 21 20 17 16 12 10 15 11 15 14 15 18 24 21 36 51 47 37 24 28 29 32 29 27 27 22 16 22 27 37 44 48 49 48 45 42
40 35 31 25 23 20 21 18 15 16 17 17 14 11 13 17 20 23 27 28 32 25 28 45 51 38 25 26 34 33 25 30 27 24 23 21 22 27 27 28 27 29 29 31
35 35 30 27 26 23 20 18 16 16 16 14 12 14 14 17 23 30 35 37 31 26 30 40 45 41 29 21 28 34 35 29 25 23 24 28 24 21 17 29 32 33 32 27
32 37 29 27 27 25 25 24 20 18 19 18 17 16 24 31 36 39 40 29 26 27 31 40 42 43 24 18 18 17 17 20 17 17 15 15 17 19 20 19 23 26 23 24
27 32 28 26 28 28 30 28 21 21 22 22 21 20 27 27 30 35 23 18 17 23 36 46 42 36 29 18 13 14 14 14 15 14 14 15 19 14 15 14 17 19 20 22
27 29 21 31 23 27 27 27 25 21 28 29 26 26 27 23 11 8 3 12 14 14 18 22 24 27 25 20 14 16 15 13 14 9 3 2 3 4 2 1 3 6 10 13
31 27 25 26 24 26 28 28 24 23 27 22 22 24 23 12 6 5 12 18 14 15 22 23 22 20 23 19 22 20 17 18 16 11 9 8 7 8 11 13 13 16 19 21
23 22 27 20 29 28 28 24 25 24 25 25 26 22 14 10 13 12 8 9 13 16 19 20 21 26 20 23 27 22 23 19 15 11 10 10 12 14 19 21 24 27 29 30
17 17 21 26 25 28 28 28 28 27 27 25 19 18 15 15 14 12 14 11 12 20 17 16 21 21 19 20 26 24 18 14 16 14 13 13 18 23 25 30 28 28 27 29
11 9 15 22 27 27 30 30 27 26 23 18 18 20 17 17 17 15 19 9 16 14 17 20 15 15 22 21 18 17 17 15 13 13 14 20 23 23 24 23 17 17 18 21
9 8 12 8 11 14 18 27 36 32 25 23 21 16 18 19 16 16 16 17 17 19 20 18 16 15 12 13 15 16 11 9 13 12 16 18 19 17 16 13 14 17 18 16
4 4 3 5 8 2 14 19 17 30 24 15 24 18 17 20 18 19 20 18 17 17 17 15 13 14 15 15 15 15 12 16 14 13 16 17 16 14 15 16 16 16 18 18
12 14 13 12 16 18 18 24 24 19 25 27 22 20 20 20 18 17 17 16 15 14 13 13 13 14 14 14 12 15 16 13 22 17 15 16 18 16 15 15 18 17 18 13
10 17 21 21 20 14 14 20 19 25 22 20 20 18 17 16 14 14 13 14 12 11 13 12 11 11 13 15 17 19 20 24 23 18 20 16 17 14 11 13 14 19 23 23
6 9 11 16 17 17 17 19 13 12 11 14 14 14 15 16 16 16 13 14 15 13 14 16 19 23 27 30 30 29 27 24 22 16 19 16 13 14 15 16 18 14 17 25